Location: C.E.K. Mees Observatory
(42.7003°N, 77.4088°W)
Time: 04:54:50
(UTC-04:00)

N. Korean satellite - Pass Details

Date: 13 October 2017
Orbit: 459 x 517 km, 97.2° (Epoch: 19 October)

Event Time Altitude Azimuth Distance (km) Brightness Sun altitude
Rises 19:46:37 0° 190° (S) 2,550 10.3 -14.8°
Reaches altitude 10° 19:48:53 10° 202° (SSW) 1,664 9.5 -15.3°
Maximum altitude 19:52:01 29° 263° (W) 917 8.8 -15.8°
Drops below altitude 10° 19:55:08 10° 325° (NW) 1,649 9.8 -16.4°
Sets 19:57:23 0° 337° (NNW) 2,522 10.6 -16.8°
